Del Bajio, Mexico

7:34 AM CDT on April 19, 2018 (GMT -0500)
De Guanajuato International

Weather History for MMLO - January, 2015

Change the Weather History Date:

Saturday, January 10, 2015

  Actual Average Record
Temperature  
Mean Temperature 58 °F -  
Max Temperature 71 °F 72 °F 84 °F (2009)
Min Temperature 44 °F 41 °F 33 °F (2017)
Degree Days  
Heating Degree Days 8    
Growing Degree Days 8 (Base 50)    
Moisture  
Dew Point 42 °F    
Average Humidity 58    
Maximum Humidity 93    
Minimum Humidity 31    
Precipitation  
Precipitation 0.00 in - - ()
Sea Level Pressure  
Sea Level Pressure 30.20 in    
Wind  
Wind Speed 4 mph ()    
Max Wind Speed 12 mph    
Max Gust Speed -    
Visibility 8.6 miles    
Events      
Averages and records for this station are not official NWS values.
T = Trace of Precipitation, MM = Missing Value Source: Averaged Metar Reports

Daily Weather History Graph

Daily Weather History Graph

Search for Another Location

Airport or City:

Astronomy

Jan. 10, 2015 Rise Set
Actual Time 7:25 AM CST 6:21 PM CST
Civil Twilight 7:01 AM CST 6:45 PM CST
Nautical Twilight 6:33 AM CST 7:13 PM CST
Astronomical Twilight 6:06 AM CST 7:40 PM CST
Moon 11:09 PM CST (1/10) 10:50 AM CST (1/10)
Length of Visible Light 11h 44m
Length of Day
10h 56m
Waning Gibbous, 74% of the Moon is Illuminated
Jan 10
Waning Gibbous
Jan 13
Last Quarter
Jan 20
New
Jan 26
First Quarter
Feb 3
Full

Hourly Weather History & Observations

Time (CST) Temp. Dew Point Humidity Pressure Visibility Wind Dir Wind Speed Gust Speed Precip Events Conditions
12:44 AM 55.4 °F 44.6 °F 67% 30.34 in 8.0 mi NNE 5.8 mph - N/A   Mostly Cloudy
1:50 AM 55.4 °F 44.6 °F 67% 30.33 in 8.0 mi NNE 6.9 mph - N/A   Mostly Cloudy
2:45 AM 53.6 °F 46.4 °F 77% 29.98 in 8.0 mi NNE 6.9 mph - N/A   Mostly Cloudy
3:44 AM 51.8 °F 46.4 °F 82% 30.31 in 8.0 mi NNE 11.5 mph - N/A   Mostly Cloudy
5:45 AM 48.2 °F 42.8 °F 82% 30.04 in 8.0 mi Calm Calm - N/A   Scattered Clouds
6:45 AM 46.4 °F 42.8 °F 87% 30.33 in 8.0 mi Calm Calm - N/A   Partly Cloudy
7:45 AM 44.6 °F 42.8 °F 93% 30.35 in 5.0 mi Calm Calm - N/A   Clear
8:44 AM 51.8 °F 44.6 °F 76% 30.11 in 8.0 mi Calm Calm - N/A   Partly Cloudy
9:41 AM 57.2 °F 44.6 °F 63% 30.38 in 9.0 mi Calm Calm - N/A   Clear
10:43 AM 60.8 °F 44.6 °F 55% 30.38 in 9.0 mi Calm Calm - N/A   Clear
11:43 AM 64.4 °F 44.6 °F 49% 30.04 in 9.0 mi East 6.9 mph - N/A   Partly Cloudy
1:11 PM 69.8 °F 42.8 °F 38% 30.29 in 10.0 mi Calm Calm - N/A   Scattered Clouds
1:42 PM 69.8 °F 42.8 °F 38% 30.27 in 10.0 mi Calm Calm - N/A   Mostly Cloudy
2:41 PM 69.8 °F 41.0 °F 35% 29.92 in 10.0 mi SW 8.1 mph - N/A   Scattered Clouds
3:40 PM 69.8 °F 39.2 °F 33% 30.23 in 10.0 mi West 4.6 mph - N/A   Scattered Clouds
4:44 PM 71.6 °F 39.2 °F 31% 30.23 in 10.0 mi South 6.9 mph - N/A   Partly Cloudy
5:42 PM 69.8 °F 37.4 °F 31% 29.94 in 10.0 mi South 4.6 mph - N/A   Partly Cloudy
6:49 PM 64.4 °F 37.4 °F 37% 30.25 in 10.0 mi SSW 3.5 mph - N/A   Scattered Clouds
7:40 PM 60.8 °F 37.4 °F 42% 30.28 in 8.0 mi South 2.3 mph - N/A   Scattered Clouds
8:44 PM 60.8 °F 39.2 °F 45% 30.04 in 8.0 mi East 4.6 mph - N/A   Scattered Clouds
9:44 PM 51.8 °F 41.0 °F 67% 30.31 in 8.0 mi North 4.6 mph - N/A   Partly Cloudy
10:41 PM 51.8 °F 41.0 °F 67% 30.31 in 8.0 mi North 4.6 mph - N/A   Clear
11:42 PM 50.0 °F 39.2 °F 66% 30.04 in 8.0 mi Calm Calm - N/A   Clear